FW8607 Weather Reports


time (UTC)temp
C
wind
direction
speed
KPH
gust
KPH
rain 1hr
cm
rain 24hr
cm
rain mn
cm
humidity
%
barometer
mb
20260902123018 15 113 4.8 9.7 0.00 0.00 0.00 93 1014.7
20260902120018 16 113 4.8 9.7 0.00 0.00 0.00 91 1014.7
20260902113038 16 158 1.6 6.4 0.00 0.00 0.00 91 1015.2
20260902110017 16 68 1.6 6.4 0.00 0.00 0.00 91 1015.2
20260902103018 16 0.0 0.0 0.00 0.00 0.00 91 1015.5
20260902100018 16 0.0 0.0 0.00 0.00 0.00 91 1015.7
20260902093020 16 0.0 0.0 0.00 0.00 0.00 91 1015.7
20260902090039 16 158 1.6 6.4 0.00 0.00 0.00 91 1015.9
20260902083019 16 158 1.6 6.4 0.00 0.00 0.00 90 1015.9
20260902080019 17 0.0 0.0 0.00 0.00 0.00 90 1016.1
20260902073019 17 0.0 0.0 0.00 0.00 0.00 89 1015.9
20260902070019 17 270 1.6 3.2 0.00 0.00 0.00 89 1015.6
20260902063019 17 270 3.2 6.4 0.00 0.00 0.00 89 1015.5
20260902060019 17 270 3.2 6.4 0.00 0.00 0.00 87 1015.2
20260902053019 18 248 3.2 6.4 0.00 0.00 0.00 86 1015.1
20260902050039 18 248 4.8 6.4 0.00 0.00 0.00 85 1014.9
20260902043019 19 248 4.8 8.0 0.00 0.00 0.00 84 1014.7
20260902040019 20 248 4.8 8.0 0.00 0.00 0.00 82 1014.2
20260902033019 20 270 4.8 9.7 0.00 0.00 0.00 80 1013.7
20260902030019 21 270 9.7 14.5 0.00 0.00 0.00 78 1013.3
20260902023018 22 248 11.3 19.3 0.00 0.00 0.00 74 1013.0
20260902020038 23 248 11.3 19.3 0.00 0.00 0.00 68 1013.1
20260902013018 25 248 11.3 19.3 0.00 0.00 0.00 61 1013.3
20260902010018 26 248 11.3 24.1 0.00 0.00 0.00 57 1013.4
20260902003018 27 248 11.3 22.5 0.00 0.00 0.00 53 1013.5
20260902000018 27 248 16.1 25.7 0.00 0.00 0.00 53 1013.6
20260901233018 28 270 14.5 27.4 0.00 0.00 0.00 49 1013.8
20260901230018 28 248 16.1 29.0 0.00 0.00 0.00 51 1013.8
20260901223018 28 248 16.1 30.6 0.00 0.00 0.00 49 1013.8
20260901220018 29 270 16.1 30.6 0.00 0.00 0.00 48 1013.8
20260901213038 29 270 14.5 27.4 0.00 0.00 0.00 47 1014.0
20260901210018 29 248 14.5 30.6 0.00 0.00 0.00 51 1014.1
20260901203018 29 270 12.9 30.6 0.00 0.00 0.00 52 1014.3
20260901200017 28 293 14.5 25.7 0.00 0.00 0.00 51 1014.6
20260901193018 28 315 12.9 22.5 0.00 0.00 0.00 53 1014.8
20260901190018 27 338 9.7 20.9 0.00 0.00 0.00 57 1014.8
20260901183019 27 293 8.0 19.3 0.00 0.00 0.00 59 1015.1
20260901180019 25 338 6.4 16.1 0.00 0.00 0.00 65 1015.1
20260901173039 23 315 8.0 20.9 0.00 0.00 0.00 70 1015.3
20260901170019 22 338 9.7 17.7 0.00 0.00 0.00 76 1015.0
20260901163040 21 315 8.0 16.1 0.00 0.00 0.00 83 1015.0
20260901160019 19 293 6.4 16.1 0.00 0.00 0.00 92 1014.4
20260901153019 18 315 6.4 12.9 0.00 0.00 0.00 95 1014.3
20260901150039 17 293 3.2 12.9 0.00 0.00 0.00 95 1014.1
20260901143019 16 90 3.2 6.4 0.00 0.00 0.00 95 1013.9
20260901140019 16 90 4.8 11.3 0.00 0.00 0.00 94 1013.8
20260901133019 16 113 6.4 11.3 0.00 0.00 0.00 94 1013.6
20260901130019 17 135 3.2 8.0 0.00 0.00 0.00 93 1013.7